| time (UTC) | temp F | wind direction | speed knots | gust knots | rain 1hr in | rain 24hr in | rain mn in | humidity % | barometer mb |
| 20260502220019 | 53 | 255 | 0.0 | 1.7 | 0.00 | 0.14 | 0.14 | 88 | 1012.0 |
| 20260502214518 | 53 | 236 | 0.0 | 1.7 | 0.00 | 0.14 | 0.14 | 88 | 1011.9 |
| 20260502213034 | 53 | 252 | 0.0 | 1.7 | 0.00 | 0.14 | 0.14 | 88 | 1011.7 |
| 20260502211507 | 53 | 261 | 0.0 | 0.9 | 0.00 | 0.14 | 0.14 | 88 | 1012.0 |
| 20260502210012 | 53 | 190 | 0.0 | 1.7 | 0.00 | 0.14 | 0.14 | 88 | 1012.0 |
| 20260502204516 | 54 | 148 | 0.0 | 1.7 | 0.00 | 0.14 | 0.14 | 88 | 1012.0 |
| 20260502203020 | 54 | 92 | 0.0 | 0.9 | 0.00 | 0.14 | 0.14 | 88 | 1012.3 |
| 20260502201534 | 54 | 92 | 0.0 | 0.0 | 0.00 | 0.14 | 0.14 | 88 | 1012.2 |
| 20260502200008 | 54 | 92 | 0.0 | 0.0 | 0.00 | 0.14 | 0.14 | 88 | 1012.1 |
| 20260502194508 | 54 | 92 | 0.0 | 0.9 | 0.00 | 0.14 | 0.14 | 88 | 1012.1 |
| 20260502193016 | 54 | 138 | 0.0 | 1.7 | 0.00 | 0.14 | 0.14 | 88 | 1012.1 |
| 20260502191522 | 55 | 172 | 0.0 | 1.7 | 0.00 | 0.14 | 0.14 | 87 | 1012.1 |
| 20260502190025 | 55 | 156 | 0.0 | 0.9 | 0.00 | 0.14 | 0.14 | 87 | 1012.2 |
| 20260502184511 | 55 | 238 | 0.0 | 1.7 | 0.00 | 0.14 | 0.14 | 87 | 1012.3 |
| 20260502183014 | 55 | 130 | 0.0 | 0.9 | 0.00 | 0.14 | 0.14 | 87 | 1012.2 |
| 20260502181527 | 55 | 84 | 0.0 | 1.7 | 0.00 | 0.14 | 0.14 | 87 | 1012.2 |
| 20260502163025 | 56 | 32 | 0.0 | 1.7 | 0.07 | 0.14 | 0.14 | 87 | 1013.3 |
| 20260502161514 | 56 | 126 | 0.0 | 1.7 | 0.10 | 0.13 | 0.13 | 87 | 1013.4 |
| 20260502151528 | 58 | 122 | 0.9 | 4.3 | 0.03 | 0.03 | 0.03 | 81 | 1014.3 |
| 20260502123021 | 66 | 133 | 1.7 | 6.1 | 0.00 | 0.00 | 0.00 | 55 | 1016.1 |
| 20260502121504 | 66 | 193 | 0.0 | 5.2 | 0.00 | 0.00 | 0.00 | 55 | 1016.2 |
| 20260502114506 | 66 | 186 | 1.7 | 5.2 | 0.00 | 0.00 | 0.00 | 55 | 1016.6 |
| 20260502113010 | 65 | 136 | 0.0 | 5.2 | 0.00 | 0.00 | 0.00 | 56 | 1016.7 |
| 20260502111510 | 67 | 87 | 1.7 | 4.3 | 0.00 | 0.00 | 0.00 | 57 | 1017.0 |
| 20260502110009 | 67 | 28 | 0.0 | 4.3 | 0.00 | 0.00 | 0.00 | 55 | 1017.2 |
| 20260502104514 | 66 | 146 | 0.9 | 5.2 | 0.00 | 0.00 | 0.00 | 57 | 1017.6 |
| 20260502103014 | 63 | 75 | 0.9 | 7.0 | 0.00 | 0.00 | 0.00 | 60 | 1017.9 |
| 20260502101512 | 63 | 40 | 1.7 | 4.3 | 0.00 | 0.00 | 0.00 | 59 | 1017.9 |
| 20260502091516 | 59 | 175 | 0.9 | 4.3 | 0.00 | 0.00 | 0.00 | 67 | 1018.2 |
| 20260502071514 | 53 | 61 | 0.0 | 1.7 | 0.00 | 0.00 | 0.00 | 79 | 1018.9 |
| 20260502070030 | 53 | 141 | 0.0 | 1.7 | 0.00 | 0.00 | 0.00 | 82 | 1019.1 |
| 20260502064518 | 51 | 172 | 0.0 | 3.5 | 0.00 | 0.00 | 0.00 | 82 | 1019.1 |
| 20260502063021 | 50 | 164 | 0.9 | 3.5 | 0.00 | 0.00 | 0.00 | 83 | 1019.1 |
| 20260502061516 | 50 | 147 | 0.9 | 2.6 | 0.00 | 0.00 | 0.00 | 83 | 1019.2 |
| 20260502060032 | 49 | 155 | 0.0 | 2.6 | 0.00 | 0.00 | 0.00 | 85 | 1019.0 |
| 20260502054503 | 48 | 173 | 0.0 | 0.9 | 0.00 | 0.00 | 0.00 | 86 | 1019.1 |
| 20260502053005 | 47 | 231 | 0.0 | 0.9 | 0.00 | 0.00 | 0.00 | 86 | 1019.1 |
| 20260502051511 | 47 | 232 | 0.0 | 0.0 | 0.00 | 0.00 | 0.00 | 86 | 1019.1 |
| 20260502050019 | 47 | 232 | 0.0 | 0.9 | 0.00 | 0.00 | 0.00 | 85 | 1019.0 |
| 20260502044517 | 47 | 232 | 0.0 | 0.0 | 0.00 | 0.00 | 0.00 | 85 | 1019.1 |
| 20260502043002 | 47 | 232 | 0.0 | 0.9 | 0.00 | 0.00 | 0.00 | 85 | 1019.0 |
| 20260502041520 | 47 | 232 | 0.0 | 1.7 | 0.00 | 0.00 | 0.00 | 85 | 1019.2 |
| 20260502040032 | 47 | 232 | 0.0 | 0.9 | 0.00 | 0.00 | 0.00 | 85 | 1019.3 |
| 20260502034518 | 48 | 232 | 0.0 | 0.9 | 0.00 | 0.00 | 0.00 | 84 | 1019.4 |
| 20260502033030 | 48 | 232 | 0.0 | 1.7 | 0.00 | 0.00 | 0.00 | 83 | 1019.5 |
| 20260502031505 | 49 | 246 | 0.9 | 2.6 | 0.00 | 0.00 | 0.00 | 83 | 1019.6 |
| 20260502030010 | 49 | 247 | 0.0 | 1.7 | 0.00 | 0.00 | 0.00 | 83 | 1019.7 |
| 20260502024514 | 48 | 268 | 0.0 | 2.6 | 0.00 | 0.00 | 0.00 | 83 | 1019.7 |
| 20260502023029 | 49 | 249 | 0.9 | 2.6 | 0.00 | 0.00 | 0.00 | 83 | 1019.7 |
| 20260502021523 | 48 | 250 | 0.9 | 2.6 | 0.00 | 0.00 | 0.00 | 82 | 1019.9 |
| 20260502020026 | 49 | 221 | 0.9 | 4.3 | 0.00 | 0.00 | 0.00 | 81 | 1019.9 |
| 20260502014511 | 49 | 217 | 0.0 | 2.6 | 0.00 | 0.00 | 0.00 | 81 | 1020.0 |
| 20260502013016 | 48 | 248 | 0.0 | 2.6 | 0.00 | 0.00 | 0.00 | 82 | 1020.1 |
| 20260502011522 | 48 | 223 | 0.0 | 1.7 | 0.00 | 0.00 | 0.00 | 82 | 1020.1 |
| 20260502010025 | 49 | 232 | 0.9 | 2.6 | 0.00 | 0.00 | 0.00 | 81 | 1020.3 |
| 20260502004527 | 49 | 236 | 0.9 | 2.6 | 0.00 | 0.00 | 0.00 | 81 | 1020.4 |
| 20260502003015 | 48 | 262 | 0.0 | 0.9 | 0.00 | 0.00 | 0.00 | 82 | 1020.4 |
| 20260502001520 | 49 | 262 | 0.0 | 1.7 | 0.00 | 0.00 | 0.00 | 80 | 1020.4 |
| 20260502000040 | 50 | 250 | 0.0 | 2.6 | 0.00 | 0.00 | 0.00 | 80 | 1020.6 |
| 20260501234528 | 50 | 244 | 0.0 | 1.7 | 0.00 | 0.00 | 0.00 | 81 | 1020.7 |
| 20260501233026 | 50 | 229 | 0.0 | 0.9 | 0.00 | 0.00 | 0.00 | 83 | 1020.8 |
| 20260501231520 | 50 | 229 | 0.0 | 0.9 | 0.00 | 0.00 | 0.00 | 83 | 1021.0 |
| 20260501230007 | 51 | 229 | 0.0 | 0.9 | 0.00 | 0.00 | 0.00 | 83 | 1021.1 |
| 20260501224508 | 51 | 219 | 0.0 | 1.7 | 0.00 | 0.00 | 0.00 | 85 | 1021.1 |
| 20260501223017 | 51 | 111 | 0.0 | 1.7 | 0.00 | 0.00 | 0.00 | 84 | 1021.0 |
| 20260501221514 | 51 | 252 | 0.0 | 0.9 | 0.00 | 0.00 | 0.00 | 85 | 1021.0 |